Location: *
(39.6167°S, 171.5333°W)
Time: 04:24:41
(UTC+00:00)

SL-16 R/B - Pass Details

Date: 13 May 2021
Orbit: 842 x 848 km, 71.0° (Epoch: 16 June)

Event Time Altitude Azimuth Distance (km) Brightness Sun altitude
Exits shadow 17:16:08 - 217° (SW) 2,541 4.2 -12.9°
Reaches altitude 10° 17:16:16 10° 218° (SW) 2,494 4.2 -12.9°
Maximum altitude 17:21:34 40° 285° (WNW) 1,232 2.7 -11.9°
Drops below altitude 10° 17:26:50 10° 353° (N) 2,469 4.7 -10.9°
Sets 17:29:23 0° 0° (N) 3,397 5.6 -10.4°
